星链-37661(STARLINK-37661)

导读

**STARLINK-37661(NORAD编号69147)是美国SpaceX公司星链(Starlink)星座中的一颗互联网通信卫星,属于低轨卫星星座的组成部分。** 作为星链项目批量发射的卫星之一,它主要为全球偏远无覆盖区域、传统网络难以服务的地区提供宽带互联网接入服务。该卫星运行在近地轨道,由北美防空司令部(NORAD)分配编号69147,公开可查其两行轨道根数(TLE),常被用于卫星轨道仿真、星链星座研究等领域。依托星链规模化低轨布局,它支撑起星座全球覆盖的通信能力。

Basic Information
目录编号:
69147
目录名称:
STARLINK-37661
国际标识:
2026-110Z
轨道中心:
EARTH
卫星名称:
星链-37661
卫星全名:
星链-37661(STARLINK-37661)
卫星状态:
在轨 (已飞行107 天)
发射日期:
2026-05-20 UTC
国别 :
美国 (US)
星等 :
--
Orbit Information
数据来源 国际轨道数据 AOE轨道数据
星历时间 2026-09-04T08:10:42+0800
11小时前
查看轨道信息
2026-09-01T23:00:00+0800
2天前
查看轨道信息
半长轴 6843.672km 6843.743km
偏心率 0.0000418 0.0001458
轨道倾角 97.285° 97.288°
近地点辐角 112.630° 87.163°
升交点赤经 82.375° 80.027°
平近点角 247.499° 89.541°
近地点 465.248km 464.608km
远地点 465.822km 466.604km
周期 93.906分钟 93.907分钟
每日圈数 15.334479 15.33424
Detailed Information
固有亮度:
5
最大亮度:
2.5
卫星平台:
Starlink V1.0
覆盖范围:
全球
运营商:
太空探索技术公司
运营商所在国:
美国
制造商(研发单位):
太空探索技术公司
制造商所在国:
美国
使用方式:
暂无
Satellite Introduction
Starlink 计划是 SpaceX 推出的全球卫星互联网项目,通过发射低轨道卫星,为全球尤其是偏远地区提供高速、低延迟的互联网服务。自 2019 年起,Starlink 已部署数千颗卫星,旨在缩小全球数字鸿沟,推动互联网普及。该项目还为军事、航空等行业提供通信支持,带来广泛经济效益。
2D Orbit Map
3D Orbit Map
Orbit Altitude Analysis Chart
Orbit Inclination Analysis Chart
Orbit Comprehensive Analysis Chart
View Comprehensive Chart
Conjunction Data List
Event ID Objects TCA Miss Dist (km) Collision Risk Probability Collision Risk Index (CRI) Action
CDM_260830-105706-839006-914721
2026-08-30T
10:57:10+0000
1.633 km
极远距离
2.989978E-6 低风险 0.45
CDM_260905-225905-172506-914721
2026-09-05T
22:59:07+0000
2.193 km
极远距离
2.238452E-6 低风险 0.42
CDM_260830-114406-839006-914721
2026-08-30T
11:44:09+0000
1.829 km
极远距离
2.16174E-6 低风险 0.42
CDM_260830-091206-029206-914722
2026-08-30T
09:12:46+0000
2.278 km
极远距离
1.920865E-6 低风险 0.41
CDM_260905-203805-172506-914721
2026-09-05T
20:38:13+0000
2.793 km
极远距离
1.440166E-6 低风险 0.38
CDM_260828-132006-418306-914721
2026-08-28T
13:20:32+0000
2.968 km
极远距离
1.038379E-6 低风险 0.35